| time (UTC) | temp F | wind direction | speed MPH | gust MPH | rain 1hr in | rain 24hr in | rain mn in | humidity % | barometer mb |
| 20260510010058 | 60 | 0.0 | 2.0 | 0.00 | 0.00 | 0.00 | 75 | 1030.7 | |
| 20260510004548 | 59 | 0.0 | 1.0 | 0.00 | 0.00 | 0.00 | 75 | 1030.7 | |
| 20260510003047 | 58 | 1.0 | 4.0 | 0.00 | 0.00 | 0.00 | 83 | 1030.8 | |
| 20260510001545 | 57 | 0.0 | 0.0 | 0.00 | 0.00 | 0.00 | 89 | 1030.9 | |
| 20260510000058 | 56 | 0.0 | 1.0 | 0.00 | 0.00 | 0.00 | 94 | 1030.9 | |
| 20260509234548 | 55 | 0.0 | 2.0 | 0.00 | 0.00 | 0.00 | 96 | 1030.8 | |
| 20260509233035 | 54 | 0.0 | 2.0 | 0.00 | 0.00 | 0.00 | 97 | 1030.8 | |
| 20260509231533 | 54 | 1.0 | 2.0 | 0.00 | 0.00 | 0.00 | 97 | 1030.8 | |
| 20260509230036 | 53 | 0.0 | 2.0 | 0.00 | 0.00 | 0.00 | 97 | 1030.9 | |
| 20260509224530 | 53 | 0.0 | 1.0 | 0.00 | 0.00 | 0.00 | 97 | 1030.7 | |
| 20260509223030 | 52 | 0.0 | 1.0 | 0.00 | 0.00 | 0.00 | 97 | 1030.6 | |
| 20260509221528 | 52 | 0.0 | 0.0 | 0.00 | 0.00 | 0.00 | 97 | 1030.6 | |
| 20260509220027 | 52 | 0.0 | 1.0 | 0.00 | 0.00 | 0.00 | 97 | 1030.3 | |
| 20260509214625 | 52 | 0.0 | 0.0 | 0.00 | 0.00 | 0.00 | 97 | 1030.1 | |
| 20260509213024 | 52 | 0.0 | 0.0 | 0.00 | 0.00 | 0.00 | 97 | 1029.8 | |
| 20260509211520 | 52 | 0.0 | 1.0 | 0.00 | 0.00 | 0.00 | 97 | 1029.7 | |
| 20260509210021 | 51 | 0.0 | 0.0 | 0.00 | 0.00 | 0.00 | 97 | 1029.7 | |
| 20260509204524 | 51 | 0.0 | 0.0 | 0.00 | 0.00 | 0.00 | 97 | 1029.5 | |
| 20260509203016 | 50 | 0.0 | 0.0 | 0.00 | 0.00 | 0.00 | 96 | 1029.3 | |
| 20260509201513 | 51 | 0.0 | 0.0 | 0.00 | 0.00 | 0.00 | 96 | 1029.2 | |
| 20260509200011 | 51 | 0.0 | 0.0 | 0.00 | 0.00 | 0.00 | 96 | 1029.1 | |
| 20260509194509 | 51 | 0.0 | 0.0 | 0.00 | 0.00 | 0.00 | 96 | 1029.0 | |
| 20260509193006 | 52 | 0.0 | 1.0 | 0.00 | 0.00 | 0.00 | 96 | 1028.7 | |
| 20260509191505 | 52 | 0.0 | 0.0 | 0.00 | 0.00 | 0.00 | 96 | 1028.4 | |
| 20260509190001 | 53 | 0.0 | 2.0 | 0.00 | 0.00 | 0.00 | 96 | 1028.4 | |
| 20260509184607 | 53 | 0.0 | 1.0 | 0.00 | 0.00 | 0.00 | 96 | 1028.3 | |
| 20260509183100 | 53 | 1.0 | 2.0 | 0.00 | 0.00 | 0.00 | 96 | 1028.2 | |
| 20260509181621 | 53 | 0.0 | 0.0 | 0.00 | 0.00 | 0.00 | 96 | 1028.1 | |
| 20260509174559 | 53 | 0.0 | 1.0 | 0.00 | 0.00 | 0.00 | 95 | 1028.0 | |
| 20260509173104 | 53 | 0.0 | 0.0 | 0.00 | 0.00 | 0.00 | 95 | 1028.0 | |
| 20260509171555 | 53 | 0.0 | 0.0 | 0.00 | 0.00 | 0.00 | 95 | 1028.1 | |
| 20260509170054 | 53 | 0.0 | 1.0 | 0.00 | 0.00 | 0.00 | 95 | 1028.1 | |
| 20260509164553 | 54 | 0.0 | 0.0 | 0.00 | 0.00 | 0.00 | 95 | 1028.3 | |
| 20260509163052 | 54 | 0.0 | 0.0 | 0.00 | 0.00 | 0.00 | 95 | 1028.2 | |
| 20260509161549 | 54 | 0.0 | 0.0 | 0.00 | 0.00 | 0.00 | 94 | 1028.3 | |
| 20260509160049 | 54 | 0.0 | 0.0 | 0.00 | 0.00 | 0.00 | 94 | 1028.3 | |
| 20260509154548 | 54 | 0.0 | 0.0 | 0.00 | 0.00 | 0.00 | 94 | 1028.3 | |
| 20260509153051 | 54 | 0.0 | 0.0 | 0.00 | 0.00 | 0.00 | 94 | 1028.2 | |
| 20260509151552 | 54 | 0.0 | 0.0 | 0.00 | 0.00 | 0.00 | 94 | 1028.4 | |
| 20260509150046 | 54 | 0.0 | 0.0 | 0.00 | 0.00 | 0.00 | 94 | 1028.4 | |
| 20260509144601 | 54 | 0.0 | 0.0 | 0.00 | 0.00 | 0.00 | 94 | 1028.4 | |
| 20260509143049 | 54 | 0.0 | 0.0 | 0.00 | 0.00 | 0.00 | 94 | 1028.4 | |
| 20260509141542 | 54 | 0.0 | 0.0 | 0.00 | 0.00 | 0.00 | 93 | 1028.5 | |
| 20260509140040 | 54 | 0.0 | 0.0 | 0.00 | 0.00 | 0.00 | 93 | 1028.4 | |
| 20260509134559 | 54 | 0.0 | 0.0 | 0.00 | 0.00 | 0.00 | 93 | 1028.3 | |
| 20260509133045 | 54 | 0.0 | 0.0 | 0.00 | 0.00 | 0.00 | 94 | 1028.4 | |
| 20260509131539 | 54 | 0.0 | 0.0 | 0.00 | 0.00 | 0.00 | 93 | 1028.3 | |
| 20260509130051 | 54 | 0.0 | 0.0 | 0.00 | 0.00 | 0.00 | 93 | 1028.3 | |
| 20260509124538 | 54 | 0.0 | 0.0 | 0.00 | 0.00 | 0.00 | 92 | 1028.3 | |
| 20260509123040 | 54 | 0.0 | 0.0 | 0.00 | 0.00 | 0.00 | 92 | 1028.5 | |
| 20260509121544 | 55 | 0.0 | 2.0 | 0.00 | 0.00 | 0.00 | 91 | 1028.4 | |
| 20260509120035 | 55 | 0.0 | 0.0 | 0.00 | 0.00 | 0.00 | 92 | 1028.3 | |
| 20260509114537 | 55 | 0.0 | 0.0 | 0.00 | 0.00 | 0.00 | 93 | 1028.3 | |
| 20260509113037 | 55 | 0.0 | 0.0 | 0.00 | 0.00 | 0.00 | 93 | 1028.1 | |
| 20260509111531 | 55 | 0.0 | 0.0 | 0.00 | 0.00 | 0.00 | 93 | 1028.0 | |
| 20260509110034 | 55 | 0.0 | 0.0 | 0.00 | 0.00 | 0.00 | 93 | 1028.0 | |
| 20260509104539 | 55 | 0.0 | 0.0 | 0.00 | 0.00 | 0.00 | 93 | 1027.9 | |
| 20260509103028 | 55 | 0.0 | 0.0 | 0.00 | 0.00 | 0.00 | 94 | 1027.8 | |
| 20260509101536 | 55 | 0.0 | 0.0 | 0.00 | 0.00 | 0.00 | 94 | 1027.8 | |
| 20260509100029 | 55 | 0.0 | 0.0 | 0.00 | 0.00 | 0.00 | 94 | 1027.7 | |
| 20260509094536 | 55 | 0.0 | 0.0 | 0.00 | 0.00 | 0.00 | 94 | 1027.7 | |
| 20260509093027 | 55 | 0.0 | 0.0 | 0.00 | 0.00 | 0.00 | 94 | 1027.7 | |
| 20260509091536 | 54 | 0.0 | 0.0 | 0.00 | 0.00 | 0.00 | 94 | 1027.6 | |
| 20260509090026 | 54 | 0.0 | 0.0 | 0.00 | 0.00 | 0.00 | 93 | 1027.5 | |
| 20260509084525 | 54 | 0.0 | 0.0 | 0.00 | 0.00 | 0.00 | 93 | 1027.4 | |
| 20260509083024 | 54 | 0.0 | 1.0 | 0.00 | 0.00 | 0.00 | 92 | 1027.2 | |
| 20260509081527 | 55 | 0.0 | 2.0 | 0.00 | 0.00 | 0.00 | 91 | 1027.0 | |
| 20260509080026 | 56 | 0.0 | 0.0 | 0.00 | 0.00 | 0.00 | 90 | 1026.9 | |
| 20260509074534 | 57 | 0.0 | 3.0 | 0.00 | 0.00 | 0.00 | 89 | 1026.7 | |
| 20260509073022 | 58 | 0.0 | 3.0 | 0.00 | 0.00 | 0.00 | 88 | 1026.6 | |
| 20260509071522 | 59 | 1.0 | 5.0 | 0.00 | 0.00 | 0.00 | 87 | 1026.4 | |
| 20260509070021 | 59 | 0.0 | 3.0 | 0.00 | 0.00 | 0.00 | 86 | 1026.3 | |
| 20260509064519 | 60 | 0.0 | 3.0 | 0.00 | 0.00 | 0.00 | 85 | 1026.1 | |
| 20260509063026 | 61 | 0.0 | 6.0 | 0.00 | 0.00 | 0.00 | 83 | 1026.1 | |
| 20260509061517 | 62 | 1.0 | 4.0 | 0.00 | 0.00 | 0.00 | 81 | 1026.0 | |
| 20260509060019 | 62 | 0.0 | 4.0 | 0.00 | 0.00 | 0.00 | 80 | 1025.9 | |
| 20260509054515 | 63 | 0.0 | 2.0 | 0.00 | 0.00 | 0.00 | 78 | 1025.9 | |
| 20260509053015 | 63 | 2.0 | 6.0 | 0.00 | 0.00 | 0.00 | 76 | 1025.8 | |
| 20260509051514 | 64 | 1.0 | 4.0 | 0.00 | 0.00 | 0.00 | 74 | 1025.8 | |
| 20260509050012 | 64 | 0.0 | 3.0 | 0.00 | 0.00 | 0.00 | 73 | 1025.8 | |
| 20260509044511 | 65 | 0.0 | 2.0 | 0.00 | 0.00 | 0.00 | 71 | 1026.0 | |
| 20260509043009 | 65 | 0.0 | 4.0 | 0.00 | 0.00 | 0.00 | 69 | 1026.0 | |
| 20260509041508 | 64 | 0.0 | 3.0 | 0.00 | 0.00 | 0.00 | 71 | 1026.0 | |
| 20260509040007 | 65 | 0.0 | 3.0 | 0.00 | 0.00 | 0.00 | 70 | 1026.1 | |
| 20260509034504 | 64 | 0.0 | 2.0 | 0.00 | 0.00 | 0.00 | 71 | 1026.2 | |
| 20260509033002 | 63 | 0.0 | 4.0 | 0.00 | 0.00 | 0.00 | 74 | 1026.3 | |
| 20260509031501 | 63 | 0.0 | 4.0 | 0.00 | 0.00 | 0.00 | 75 | 1026.4 | |
| 20260509030101 | 63 | 1.0 | 3.0 | 0.00 | 0.00 | 0.00 | 75 | 1026.6 | |
| 20260509024600 | 62 | 0.0 | 5.0 | 0.00 | 0.00 | 0.00 | 76 | 1026.8 | |
| 20260509023108 | 61 | 0.0 | 3.0 | 0.00 | 0.00 | 0.00 | 79 | 1027.0 | |
| 20260509021553 | 60 | 0.0 | 2.0 | 0.00 | 0.00 | 0.00 | 84 | 1027.3 | |
| 20260509020055 | 58 | 0.0 | 4.0 | 0.00 | 0.00 | 0.00 | 94 | 1027.5 | |
| 20260509014544 | 57 | 0.0 | 2.0 | 0.00 | 0.00 | 0.00 | 96 | 1027.6 | |
| 20260509013046 | 56 | 1.0 | 3.0 | 0.00 | 0.00 | 0.00 | 96 | 1027.6 | |
| 20260509011543 | 56 | 0.0 | 4.0 | 0.00 | 0.00 | 0.00 | 96 | 1027.7 |